IZ3VCM Weather Reports


time (UTC)temp
C
wind
direction
speed
KPH
gust
KPH
rain 1hr
cm
rain 24hr
cm
rain mn
cm
humidity
%
barometer
mb
20260502221503 14 0 0.0 0.0 0.00 0.00 0.00 58 1020.3
20260502220005 15 0 0.0 0.0 0.00 0.00 0.00 58 1020.3
20260502214502 15 0 0.0 0.0 0.00 0.00 0.00 56 1020.3
20260502213005 16 0 0.0 0.0 0.00 0.00 0.00 54 1020.3
20260502211503 16 0 0.0 0.0 0.00 0.00 0.00 52 1020.4
20260502210005 17 0 0.0 0.0 0.00 0.00 0.00 52 1020.5
20260502204502 17 0 0.0 0.0 0.00 0.00 0.00 52 1020.5
20260502203005 17 0 0.0 0.0 0.00 0.00 0.00 52 1020.6
20260502201502 17 0 0.0 0.0 0.00 0.00 0.00 52 1020.6
20260502200005 17 0 0.0 0.0 0.00 0.00 0.00 52 1020.6
20260502194503 17 0 0.0 0.0 0.00 0.00 0.00 51 1020.5
20260502193005 18 0 0.0 0.0 0.00 0.00 0.00 49 1020.5
20260502191503 17 0 0.0 0.0 0.00 0.00 0.00 49 1020.5
20260502190005 18 0 0.0 0.0 0.00 0.00 0.00 49 1020.4
20260502184503 18 0 0.0 0.0 0.00 0.00 0.00 46 1020.3
20260502183005 19 0 0.0 0.0 0.00 0.00 0.00 44 1020.2
20260502181503 21 0 0.0 0.0 0.00 0.00 0.00 42 1020.1
20260502163004 25 203 0.0 3.2 0.00 0.00 0.00 35 1020.6
20260502161503 26 236 4.8 6.4 0.00 0.00 0.00 34 1020.6
20260502151503 27 0 0.0 0.0 0.00 0.00 0.00 33 1021.1
20260502123005 25 259 6.4 16.1 0.00 0.00 0.00 35 1023.3
20260502121502 26 270 0.0 1.6 0.00 0.00 0.00 34 1023.4
20260502114502 25 0 0.0 0.0 0.00 0.00 0.00 34 1023.9
20260502113004 25 212 3.2 8.0 0.00 0.00 0.00 34 1024.0
20260502111503 25 267 3.2 11.3 0.00 0.00 0.00 35 1024.2
20260502110005 25 232 1.6 4.8 0.00 0.00 0.00 35 1024.5
20260502104502 25 210 8.0 11.3 0.00 0.00 0.00 35 1024.8
20260502103005 25 252 3.2 9.7 0.00 0.00 0.00 36 1024.7
20260502101503 24 274 3.2 6.4 0.00 0.00 0.00 37 1024.9
20260502091503 23 270 1.6 3.2 0.00 0.00 0.00 40 1025.5
20260502071503 18 0 0.0 0.0 0.00 0.00 0.00 52 1025.9
20260502070004 17 286 1.6 4.8 0.00 0.00 0.00 54 1026.0
20260502064503 17 292 3.2 3.2 0.00 0.00 0.00 56 1026.1
20260502063004 16 314 0.0 3.2 0.00 0.00 0.00 58 1026.1
20260502061502 15 0 0.0 0.0 0.00 0.00 0.00 59 1026.2
20260502060005 14 0 0.0 0.0 0.00 0.00 0.00 60 1026.3
20260502054502 13 0 0.0 0.0 0.00 0.00 0.00 62 1026.3